Regional Weather Roundup
Issued by NWS

Home | Current Version | Previous Version | Text Only | Print | Product List | Glossary On
Versions: 1 2 3 4 5 6 7 8 9 10 11 12 13 14 15 16 17 18 19 20 21 22 23 24 25 26 27 28 29 30 31 32 33 34 35 36 37 38 39 40 41 42 43 44 45 46 47 48 49 50
000
ASUS44 KOUN 212000
RWROK

WEATHER ROUNDUP FOR OKLAHOMA
NATIONAL WEATHER SERVICE NORMAN OK
300 PM CDT THU AUG 21 2014

NOTE: "FAIR" INDICATES FEW OR NO CLOUDS BELOW 12,000 FEET WITH NO
      SIGNIFICANT WEATHER AND/OR OBSTRUCTIONS TO VISIBILITY.

OKZ001>007-009>012-014-015-017-212100-
NORTHWEST OKLAHOMA AND THE PANHANDLE

CITY           SKY/WX    TMP DP  RH WIND       PRES   REMARKS
GAGE           SUNNY     98  64  32 S18G35    29.91F HX 100
ENID/WOODRING  MOSUNNY  100  68  34 S15G26    29.89F HX 106
$$

OKZ016-021>023-033>039-044-045-212100-
SOUTHWEST OKLAHOMA

CITY           SKY/WX    TMP DP  RH WIND       PRES   REMARKS
LAWTON/REGL    MOSUNNY  101  63  28 S16G24    29.91F HX 103
FREDERICK      SUNNY    102  64  28 S22G30    29.89F HX 105
CLINTON        MOSUNNY   98  65  33 S18G28    29.94F HX 101
HOBART         MOSUNNY   98  65  33 S20G28    29.92F HX 101
$$

OKZ018>020-024>031-212100-
CENTRAL OKLAHOMA

CITY           SKY/WX    TMP DP  RH WIND       PRES   REMARKS
OKLAHOMA CITY  MOSUNNY   96  68  39 S9G23     29.94F HX 101
OKC/WILEY POST MOSUNNY   96  67  38 S14G24    29.93F HX 100
OKC/TINKER AFB SUNNY     96  69  41 S16G24    29.95F HX 101
STILLWATER     SUNNY     99  68  36 S16G25    29.92F HX 104
GUTHRIE        SUNNY     97  69  40 S14G24    29.92F HX 103
$$

OKZ008-013-054>072-212100-
NORTHEAST OKLAHOMA

CITY           SKY/WX    TMP DP  RH WIND       PRES   REMARKS
TULSA          MOSUNNY   95  72  47 S17G24    29.93F HX 103
TULSA/JONES    MOSUNNY   96  71  44 S14G23    29.94F HX 103
PONCA CITY     SUNNY     97  69  40 SW16G23   29.90F HX 103
BARTLESVILLE   MOSUNNY   95  72  47 S9G22     29.93F HX 103
MUSKOGEE       SUNNY     91  72  53 S13       29.99F HX  98
$$

OKZ032-040>043-046>053-073>077-212100-
SOUTH CENTRAL/SOUTHEAST OKLAHOMA

CITY           SKY/WX    TMP DP  RH WIND       PRES   REMARKS
MCALESTER      MOSUNNY   91  73  55 S9G18     30.00F HX  99
$$




USA.gov is the U.S. government's official web portal to all federal, state and local government web resources and services.